Location: Hoyos del Collado
(40.3594°N, 5.2003°W)
Time: 10:39:50
(UTC+00:00)

ATLAS 3B R/B - Pass Details

Date: 18 April 2024
Orbit: 943 x 1251 km, 63.8° (Epoch: 21 May)

Event Time Altitude Azimuth Distance (km) Brightness Sun altitude
Rises 20:12:27 0° 217° (SW) 3,813 5.7 -13.1°
Reaches altitude 10° 20:15:00 10° 219° (SW) 2,904 5.1 -13.5°
Maximum altitude 20:21:56 76° 305° (NW) 1,174 3.0 -14.7°
Drops below altitude 10° 20:29:29 10° 31° (NNE) 3,139 5.1 -15.9°
Sets 20:32:20 0° 34° (NNE) 4,139 5.8 -16.4°
